Regional Weather Roundup
Issued by NWS

Home | Current Version | Previous Version | Graphics & Text | Print | Product List | Glossary On
Versions: 1 2 3 4 5 6 7 8 9 10 11 12 13 14 15 16 17 18 19 20 21 22 23 24 25 26 27 28 29 30 31 32 33 34 35 36 37 38 39 40 41 42 43 44 45 46 47 48 49 50
000
ASUS45 KTFX 292110
RWRMT
MONTANA REGIONAL WEATHER ROUNDUP
NATIONAL WEATHER SERVICE GREAT FALLS MT
300 PM MDT FRI MAY 29 2015

NOTE: "FAIR" INDICATES FEW OR NO CLOUDS BELOW 12000 FEET WITH NO
SIGNIFICANT WEATHER AND/OR OBSTRUCTIONS TO VISIBILITY.

MTZ001>007-043-292200-
WEST OF THE DIVIDE

CITY           SKY/WX    TMP DP  RH WIND       PRES   REMARKS
KALISPELL      MOCLDY    73  42  32 S7        30.06F
MISSOULA       MOSUNNY   75  44  33 N5        30.06F
BUTTE          SUNNY     65  43  44 SE9G20    30.18F
MULLAN PASS    MOSUNNY   62  41  46 VRB5      30.16F
DEER LODGE       N/A     70  45  40 CALM      30.17F
EUREKA           N/A     75  46  35 S6        30.04F
HAMILTON         N/A     75  41  29 SE5       30.05F
LIBBY            N/A     73  52  46 NW6       30.03F
PLAINS           N/A     76  49  38 N2        30.04F
RONAN            N/A     74  48  39 SW6       30.12F
THOMPSON FALLS   N/A     77  49  37 NE6       30.05F
$$

MTZ008-052>055-292200-
SOUTHWEST MONTANA

CITY           SKY/WX    TMP DP  RH WIND       PRES   REMARKS
BOZEMAN        SUNNY     67  49  52 NE3       30.18F
DILLON         SUNNY     66  44  45 SW5       30.17F
W YELLOWSTONE  PTSUNNY   59  36  41 SE6       30.24F
THREE FORKS      N/A     66  66 100 SW2       30.15F
$$

MTZ009-010-012-014-046-048-049-054-292200-
EAST SLOPES AND CENTRAL MONTANA

CITY           SKY/WX    TMP DP  RH WIND       PRES   REMARKS
CUT BANK       PTSUNNY   57  45  64 SE15G21   30.17F
GREAT FALLS    SUNNY     65  50  58 E10G17    30.15F
MALMSTROM AFB  MOSUNNY   63  52  67 E12G17    30.16F
HELENA         SUNNY     70  47  43 E16G22    30.12F
CONRAD           N/A     57  51  80 E9        30.19F
$$

MTZ011-013-016-021-045-047-050-051-292200-
NORTH CENTRAL MONTANA

CITY           SKY/WX    TMP DP  RH WIND       PRES   REMARKS
HAVRE          MOSUNNY   63  42  46 CALM      30.20F
LEWISTOWN      MOSUNNY   60  47  61 E10       30.22F
N BAR RANCH    CLOUDY    54  43  66 S8G18     30.28F
CHINOOK          N/A     63  41  45 E15G21    30.22F
FORT BENTON      N/A     64  46  52 E14       30.18F
$$

MTZ017>020-022>027-061-062-292200-
NORTHEAST MONTANA

CITY           SKY/WX    TMP DP  RH WIND       PRES   REMARKS
GLASGOW        SUNNY     56  33  42 S6        30.29F
JORDAN           N/A     59  33  37 NE7       30.28F
SIDNEY         SUNNY     61  32  33 CALM      30.29F
WOLF POINT     SUNNY     60  31  33 MISG      30.30F
MALTA            N/A     61  36  39 N5        30.23F
PLENTYWOOD       N/A     55  28  35 N10G16    30.29F
POPLAR           N/A     57  30  35 NW9       30.30F
SCOBEY           N/A     54  29  38 N5        30.27F
$$

MTZ028>42-056>058-292200-
SOUTHCENTRAL AND SOUTHEAST MONTANA

CITY           SKY/WX    TMP DP  RH WIND       PRES   REMARKS
BAKER          SUNNY     59  34  39 N12       30.28F
BILLINGS       PTSUNNY   56  44  64 E6        30.27F
LIVINGSTON     MOSUNNY   60  47  61 E15G23    30.22F
MILES CITY     SUNNY     60  28  29 E6        30.28F
BIG TIMBER       N/A     54  45  71 E10       30.26F
EKALAKA          N/A     54  27  35 NW9       30.23F
LAUREL           N/A     57  44  62 E2        30.24F
ROUNDUP          N/A     59  40  49 SE1       30.15F
$$

REGIONAL REPORTS...DAKOTAS

CITY           SKY/WX    TMP DP  RH WIND       PRES   REMARKS
WILLISTON      SUNNY     58  32  37 NE13      30.29F
MINOT          MOSUNNY   54  33  45 NW12G22   30.27F
DICKINSON        N/A    N/A N/A N/A MISG      30.26F
BEACH          FAIR      55  32  41 N12G17    30.29S
CROSBY         FAIR      54  32  43 N12       30.30F
WATFORD CITY   FAIR      54  36  50 N8        30.27F
BISMARCK       PTSUNNY   55  35  47 N14G23    30.26S
GRAND FORKS    MOSUNNY   55  38  52 N26G32    30.18S
FARGO          PTSUNNY   55  42  61 N22G30    30.14F
BUFFALO SD       N/A     54  38  54 NE10      30.22S
RAPID CITY     PTSUNNY   56  42  59 N23G30    30.26S
$$

REGIONAL REPORTS...WYOMING/IDAHO/WASHINGTON

CITY           SKY/WX    TMP DP  RH WIND       PRES   REMARKS
GILLETTE       MOSUNNY   57  31  37 N8        30.28S
SHERIDAN       CLOUDY    51  46  83 SW3       30.29F
BUFFALO WY     CLOUDY    49  43  80 N8        30.32S
CODY           PTSUNNY   59  48  67 NE5       30.24F
YELLOWSTONE LA   N/A     54  38  54 VRB3      30.32F
IDAHO FALLS    MOSUNNY   67  42  40 W3        30.19F
SALMON         CLOUDY    72  45  37 CALM      30.07F
BOISE          MOSUNNY   83  37  19 S9        30.03F
SPOKANE        PTSUNNY   79  46  31 SE9       30.00F
$$

REGIONAL REPORTS...ALBERTA

CITY           SKY/WX    TMP DP  RH WIND       PRES   REMARKS
EDMONTON       PTSUNNY   59  28  31 E14       30.24S
CALGARY        CLOUDY    57  39  51 SE15      30.18F
LETHBRIDGE     PTSUNNY   64  48  55 S12G17    30.15F
MEDICINE HAT   PTSUNNY   64  32  29 NE7       30.20F
$$

REGIONAL REPORTS...SASKATCHEWAN

CITY           SKY/WX    TMP DP  RH WIND       PRES   REMARKS
SWIFT CURRENT  SUNNY     55  27  33 E10       30.28F
REGINA         MOSUNNY   55  23  28 NE8       30.33F
SASKATOON      MOSUNNY   54  23  30 VRB2      30.37F
$$


USA.gov is the U.S. government's official web portal to all federal, state and local government web resources and services.